Weather History for Hyeres, France

Change the Weather History Date:

Saturday, January 5, 2013

  Actual Average Record
Temperature  
Mean Temperature 48 °F -  
Max Temperature 60 °F 54 °F 62 °F (1998)
Min Temperature 35 °F 39 °F 30 °F (2005)
Degree Days  
Heating Degree Days 18    
Moisture  
Dew Point 42 °F    
Average Humidity 88    
Maximum Humidity 100    
Minimum Humidity 48    
Precipitation  
Precipitation 0.00 in - - ()
Sea Level Pressure  
Sea Level Pressure 30.20 in    
Wind  
Wind Speed 3 mph ()    
Max Wind Speed 6 mph    
Max Gust Speed -    
Visibility 5.5 miles    
Events Fog    
Averages and records for this station are not official NWS values.
T = Trace of Precipitation, MM = Missing Value Source: Averaged Metar Reports

Daily Weather History Graph

Daily Weather History Graph

Search for Another Location

Airport:

Trip Planner

Search our weather history database for the weather conditions in past years. The results will help you decide how hot, cold, wet, or windy it might be!

Date:

Astronomy

Jan. 05, 2013 Rise Set
Actual Time 8:07 AM CET 5:14 PM CET
Civil Twilight 7:34 AM CET 5:47 PM CET
Nautical Twilight 6:59 AM CET 6:22 PM CET
Astronomical Twilight 6:24 AM CET 6:57 PM CET
Moon 12:49 AM CET (1/5) 12:00 PM CET (1/5)
Length of Visible Light 10h 12m
Length of Day
9h 07m
Waning Gibbous, 47% of the Moon is Illuminated
Jan 5
Waning Gibbous
Jan 11
New
Jan 19
First Quarter
Jan 27
Full
Feb 3
Last Quarter

Hourly Weather History & Observations

Time (CET) Temp. Windchill Dew Point Humidity Pressure Visibility Wind Dir Wind Speed Gust Speed Precip Events Conditions
12:00 AM 41.0 °F 38.0 °F 39.2 °F 93% 30.33 in 6.2 mi NNE 4.6 mph - N/A   Unknown
12:30 AM 41.0 °F - 41.0 °F 100% 30.33 in 6.2 mi Variable 2.3 mph - N/A   Unknown
1:00 AM 39.2 °F - 37.4 °F 93% 30.30 in 6.2 mi Variable 1.2 mph - N/A   Unknown
1:30 AM 39.2 °F 35.0 °F 37.4 °F 93% 30.30 in 6.2 mi North 5.8 mph - N/A   Unknown
2:00 AM 39.2 °F - 37.4 °F 93% 30.30 in 6.2 mi Variable 2.3 mph - N/A   Unknown
2:30 AM 37.4 °F 33.8 °F 37.4 °F 100% 30.30 in 5.6 mi NNE 4.6 mph - N/A   Unknown
3:00 AM 37.4 °F 33.8 °F 35.6 °F 93% 30.27 in 5.6 mi NNE 4.6 mph - N/A   Unknown
3:30 AM 39.2 °F - 37.4 °F 93% 30.27 in 6.2 mi Variable 2.3 mph - N/A   Unknown
4:00 AM 37.4 °F 34.9 °F 37.4 °F 100% 30.27 in 6.2 mi NNW 3.5 mph - N/A   Unknown
4:30 AM 39.2 °F 37.0 °F 39.2 °F 100% 30.24 in 6.2 mi Variable 3.5 mph - N/A   Unknown
5:00 AM 37.4 °F 33.8 °F 35.6 °F 93% 30.24 in 6.2 mi North 4.6 mph - N/A   Unknown
5:30 AM 37.4 °F - 37.4 °F 100% 30.24 in 6.2 mi NNW 2.3 mph - N/A   Unknown
6:00 AM 39.2 °F 37.0 °F 37.4 °F 93% 30.21 in 6.2 mi North 3.5 mph - N/A   Unknown
6:30 AM 35.6 °F - 33.8 °F 93% 30.21 in 6.2 mi Variable 2.3 mph - N/A   Unknown
7:00 AM 37.4 °F - 37.4 °F 100% 30.21 in 6.2 mi Calm Calm - N/A   Unknown
7:30 AM 35.6 °F 32.8 °F 33.8 °F 93% 30.21 in 6.2 mi Variable 3.5 mph - N/A   Unknown
8:00 AM 35.6 °F 32.8 °F 33.8 °F 93% 30.21 in 6.2 mi North 3.5 mph - N/A   Unknown
8:30 AM 35.6 °F 32.8 °F 33.8 °F 93% 30.21 in 5.6 mi NNE 3.5 mph - N/A   Unknown
9:00 AM 37.4 °F - 37.4 °F 100% 30.21 in 6.2 mi Calm Calm - N/A   Unknown
9:30 AM 42.8 °F - 41.0 °F 93% 30.21 in - North 1.2 mph - N/A   Unknown
10:00 AM 46.4 °F 44.3 °F 42.8 °F 87% 30.21 in 6.2 mi WNW 4.6 mph - N/A   Unknown
10:30 AM 53.6 °F - 46.4 °F 77% 30.21 in 6.2 mi Variable 2.3 mph - N/A   Unknown
11:00 AM 57.2 °F - 44.6 °F 63% 30.21 in 6.2 mi Calm Calm - N/A   Unknown
11:30 AM 59.0 °F - 42.8 °F 55% 30.21 in 6.2 mi Variable 2.3 mph - N/A   Unknown
12:00 PM 60.8 °F - 41.0 °F 48% 30.18 in 6.2 mi ESE 3.5 mph - N/A   Unknown
12:30 PM 57.2 °F - 42.8 °F 59% 30.18 in 6.2 mi ESE 4.6 mph - N/A   Unknown
1:00 PM 57.2 °F - 42.8 °F 59% 30.18 in 6.2 mi ESE 5.8 mph - N/A   Unknown
1:30 PM 57.2 °F - 51.8 °F 82% 30.15 in 6.2 mi ESE 5.8 mph - N/A   Unknown
2:00 PM 57.2 °F - 50.0 °F 77% 30.15 in 6.2 mi SE 5.8 mph - N/A   Unknown
2:30 PM 57.2 °F - 50.0 °F 77% 30.15 in 6.2 mi ESE 4.6 mph - N/A   Unknown
3:00 PM 57.2 °F - 51.8 °F 82% 30.15 in 6.2 mi ESE 3.5 mph - N/A   Unknown
3:30 PM 57.2 °F - 51.8 °F 82% 30.15 in 6.2 mi ESE 4.6 mph - N/A   Unknown
4:00 PM 57.2 °F - 51.8 °F 82% 30.15 in 6.2 mi Variable 3.5 mph - N/A   Unknown
4:30 PM 55.4 °F - 50.0 °F 82% 30.15 in 6.2 mi ESE 3.5 mph - N/A   Unknown
5:00 PM 55.4 °F - 50.0 °F 82% 30.12 in 6.2 mi ESE 2.3 mph - N/A   Unknown
5:30 PM 50.0 °F - 46.4 °F 87% 30.12 in 5.6 mi ENE 2.3 mph - N/A   Unknown
6:00 PM 50.0 °F - 46.4 °F 87% 30.12 in - Variable 1.2 mph - N/A   Clear
6:30 PM 46.4 °F - 44.6 °F 93% 30.12 in - North 2.3 mph - N/A   Clear
6:35 PM 46.4 °F - 44.6 °F 93% 30.12 in 6.2 mi North 2.3 mph - N/A Fog Shallow Fog
7:00 PM 46.4 °F - 44.6 °F 93% 30.12 in 6.2 mi NNW 2.3 mph - N/A Fog Shallow Fog
7:30 PM 42.8 °F 41.1 °F 42.8 °F 100% 30.15 in 6.2 mi North 3.5 mph - N/A   Partly Cloudy
8:00 PM 42.8 °F 41.1 °F 42.8 °F 100% 30.15 in - Variable 3.5 mph - N/A   Clear
8:30 PM 44.6 °F - 42.8 °F 93% 30.15 in 1.5 mi NNW 2.3 mph - N/A   Mist
9:00 PM 44.6 °F 41.4 °F 42.8 °F 93% 30.15 in 1.1 mi NNW 5.8 mph - N/A   Mist
9:30 PM 42.8 °F 41.1 °F 41.0 °F 93% 30.15 in - NNE 3.5 mph - N/A Fog Fog
10:00 PM 42.8 °F 41.1 °F 41.0 °F 93% 30.15 in 2.5 mi NNW 3.5 mph - N/A   Mist
10:30 PM 41.0 °F - 41.0 °F 100% 30.15 in 0.6 mi Variable 2.3 mph - N/A Fog Patches of Fog
11:00 PM 41.0 °F 39.0 °F 39.2 °F 93% 30.15 in 0.8 mi North 3.5 mph - N/A   Mist
11:30 PM 41.0 °F 39.0 °F 39.2 °F 93% 30.15 in 1.3 mi North 3.5 mph - N/A Fog Patches of Fog